User: anonymous   Login
Location: Gerlach
(40.6516°N, 119.3568°W)
Time: 19:20:21
(UTC-08:00)
Language:

NANOSAT C BR1 - Orbit

View from above orbital plane
View from above orbital plane
View from above satellite
View from above satellite

Ground track
Ground track

The orbit data is extracted from the following two-line orbital elements,

1 40024U 14033Q   24057.41333675  .00010674  00000-0  84971-3 0  9991
2 40024  98.0609  25.2157 0010792 167.7036 192.4452 15.00534731526475
Epoch (UTC): 26 February 2024 09:55:12
Eccentricity: 0.0010792
inclination: 98.0609°
perigee height: 558 km
apogee height: 573 km
right ascension of ascending node: 25.2157°
argument of perigee: 167.7036°
revolutions per day: 15.00534731
mean anomaly at epoch: 192.4452°
orbit number at epoch: 52647

The dashed part of the orbit path shows where the satellite is in the earth's shadow,  

DLR